Estación de San Fernando

Ultimos registro cada 15 minutos 74
Estación Fecha / Hora Temperatura Humedad Lluvia Velocidad Dirección Radiación Presion
74 San Fernando 02-05-2026 18:15 14,8 66 0 0 209 0 1015
73 San Fernando 02-05-2026 18:00 15,3 63 0 0 209 0 1014,8
72 San Fernando 02-05-2026 17:45 15,9 62 0 0 220 7 1014,6
71 San Fernando 02-05-2026 17:30 16,5 60 0 0,9 199 11 1014,5
70 San Fernando 02-05-2026 17:15 16,9 58 0 0,4 199 16 1014,5
69 San Fernando 02-05-2026 17:00 17,2 60 0 1,3 229 18 1014,5
68 San Fernando 02-05-2026 16:45 17,6 60 0 1,3 226 21 1014,4
67 San Fernando 02-05-2026 16:30 18,1 58 0 0,4 253 23 1014,4
66 San Fernando 02-05-2026 16:15 18,9 55 0 1,3 218 25 1014,3
65 San Fernando 02-05-2026 16:00 19,7 53 0 0,4 195 54 1014,3
64 San Fernando 02-05-2026 15:45 19,9 53 0 0,9 167 287 1014,2
63 San Fernando 02-05-2026 15:30 19,9 54 0 0,4 281 322 1014,1
62 San Fernando 02-05-2026 15:15 19,6 57 0 0,9 185 353 1014,1
61 San Fernando 02-05-2026 15:00 19,1 61 0 0,9 209 380 1014
60 San Fernando 02-05-2026 14:45 18,8 60 0 1,8 209 410 1014
59 San Fernando 02-05-2026 14:30 18,4 63 0 0,4 260 431 1014,1
58 San Fernando 02-05-2026 14:15 17,8 64 0 0,4 253 452 1014,2
57 San Fernando 02-05-2026 14:00 17,1 67 0 0 209 471 1014,5
56 San Fernando 02-05-2026 13:45 16,4 69 0 0 139 487 1014,8
55 San Fernando 02-05-2026 13:30 15,8 71 0 0,4 194 499 1015
54 San Fernando 02-05-2026 13:15 15,2 74 0 1,3 230 510 1015,2
53 San Fernando 02-05-2026 13:00 14,7 73 0 0,9 239 519 1015,3
52 San Fernando 02-05-2026 12:45 14,1 75 0 0 235 520 1015,4
51 San Fernando 02-05-2026 12:30 13,6 76 0 1,3 193 519 1015,7
50 San Fernando 02-05-2026 12:15 13,2 78 0 1,3 192 519 1015,9
49 San Fernando 02-05-2026 12:00 12,4 80 0 1,3 178 512 1016,2
48 San Fernando 02-05-2026 11:45 11,4 83 0 0,9 261 503 1016,5
47 San Fernando 02-05-2026 11:30 10,6 85 0 1,3 166 489 1016,7
46 San Fernando 02-05-2026 11:15 10 88 0 0,9 197 475 1016,9
45 San Fernando 02-05-2026 11:00 9,3 91 0 0,9 187 454 1017,2
44 San Fernando 02-05-2026 10:45 8,8 93 0 0,9 204 269 1017,3
43 San Fernando 02-05-2026 10:30 8,3 93 0 1,8 209 211 1017,4
42 San Fernando 02-05-2026 10:15 7,8 94 0 0,9 178 218 1017,5
41 San Fernando 02-05-2026 10:00 7,6 94 0 0,9 209 223 1017,6
40 San Fernando 02-05-2026 09:45 7,3 94 0 0 204 163 1017,6
39 San Fernando 02-05-2026 09:30 7,1 94 0 0 209 107 1017,7
38 San Fernando 02-05-2026 09:15 7,1 94 0 0,4 193 127 1017,8
37 San Fernando 02-05-2026 09:00 6,9 94 0 0,9 176 111 1017,8
36 San Fernando 02-05-2026 08:45 7,1 94 0 1,8 170 72 1017,7
35 San Fernando 02-05-2026 08:30 6,8 95 0 1,3 198 134 1017,6
34 San Fernando 02-05-2026 08:15 6,8 95 0 1,8 224 49 1017,4
33 San Fernando 02-05-2026 08:00 6,8 94 0 0,9 224 25 1017,4
32 San Fernando 02-05-2026 07:45 6,8 94 0 1,3 188 18 1017,1
31 San Fernando 02-05-2026 07:30 6,9 94 0 0,9 186 5 1017
30 San Fernando 02-05-2026 07:15 6,9 94 0 0 141 0 1017,1
29 San Fernando 02-05-2026 07:00 7 94 0 1,3 189 0 1017,1
28 San Fernando 02-05-2026 06:45 7,1 94 0 0,9 204 0 1017,2
27 San Fernando 02-05-2026 06:30 7,2 93 0 0,9 214 0 1017,3
26 San Fernando 02-05-2026 06:15 7,3 93 0 0,9 248 0 1017,3
25 San Fernando 02-05-2026 06:00 7,3 93 0 0 162 0 1017,3
24 San Fernando 02-05-2026 05:45 7,3 93 0 0,9 226 0 1017,5
23 San Fernando 02-05-2026 05:30 7,3 93 0 1,8 209 0 1017,5
22 San Fernando 02-05-2026 05:15 7,3 93 0 0,4 204 0 1017,7
21 San Fernando 02-05-2026 05:00 7,2 93 0 0,9 274 0 1017,8
20 San Fernando 02-05-2026 04:45 7,1 92 0 0,9 244 0 1018,1
19 San Fernando 02-05-2026 04:30 7,2 92 0 0,9 253 0 1018,1
18 San Fernando 02-05-2026 04:15 7,3 92 0 0,9 197 0 1018,1
17 San Fernando 02-05-2026 04:00 7,4 91 0 0,9 115 0 1018,2
16 San Fernando 02-05-2026 03:45 7,6 91 0 0,4 137 0 1018,2
15 San Fernando 02-05-2026 03:30 7,8 91 0 1,3 241 0 1018,4
14 San Fernando 02-05-2026 03:15 8,1 91 0 4 209 0 1018,5
13 San Fernando 02-05-2026 03:00 8,2 91 0,3 1,3 241 0 1018,6
12 San Fernando 02-05-2026 02:45 8,3 90 0 0 182 0 1018,7
11 San Fernando 02-05-2026 02:30 8,6 90 0 0,9 239 0 1018,9
10 San Fernando 02-05-2026 02:15 8,7 90 0 0,9 181 0 1019
9 San Fernando 02-05-2026 02:00 8,9 89 0 0,4 223 0 1019,2
8 San Fernando 02-05-2026 01:45 9 89 0 1,8 204 0 1019,3
7 San Fernando 02-05-2026 01:30 9,2 89 0 1,3 204 0 1019,5
6 San Fernando 02-05-2026 01:15 9,3 89 0 0,4 220 0 1019,8
5 San Fernando 02-05-2026 01:00 9,3 89 0 0,4 220 0 1019,9
4 San Fernando 02-05-2026 00:45 9,4 89 0 0,9 214 0 1020,2
3 San Fernando 02-05-2026 00:30 9,5 89 0 0,4 187 0 1020,3
2 San Fernando 02-05-2026 00:15 9,8 89 0 0,4 218 0 1020,5
1 San Fernando 02-05-2026 00:00 10 90 0 0,4 237 0 1020,6